Hourly Weather Yubileynaya

Today, 30 September, Wednesday

Time Temperature Precipitation Wind Pressure Humidity
00:00 +5°C° 0 mm 3 mps 748 mmHg 89%
01:00 +5°C° 0 mm 2 mps 748 mmHg 90%
02:00 +3°C° 0 mm 2 mps 749 mmHg 91%
03:00 +2°C° 0 mm 2 mps 750 mmHg 91%
04:00 +3°C° 0 mm 1 mps 750 mmHg 91%
05:00 +2°C° 0 mm 1 mps 751 mmHg 91%
06:00 +1°C° 0 mm 1 mps 751 mmHg 91%
07:00 +2°C° 0 mm 1 mps 752 mmHg 83%
08:00 +2°C° 0 mm 2 mps 752 mmHg 75%
09:00 +4°C° 0 mm 2 mps 752 mmHg 67%
10:00 +6°C° 0 mm 1 mps 752 mmHg 59%
11:00 +7°C° 0 mm 1 mps 752 mmHg 52%
12:00 +8°C° 0 mm 1 mps 752 mmHg 45%
13:00 +8°C° 0 mm 1 mps 752 mmHg 45%
14:00 +9°C° 0 mm 1 mps 752 mmHg 46%
15:00 +8°C° 0 mm 1 mps 753 mmHg 45%
16:00 +7°C° 0 mm 1 mps 753 mmHg 52%
17:00 +7°C° 0 mm 1 mps 753 mmHg 58%
18:00 +6°C° 0 mm 1 mps 754 mmHg 65%
19:00 +5°C° 0.3 mm 1 mps 754 mmHg 72%
20:00 +4°C° 0.3 mm 2 mps 754 mmHg 80%
21:00 +3°C° 0.3 mm 2 mps 754 mmHg 88%
22:00 +2°C° 0.5 mm 3 mps 753 mmHg 90%
23:00 +1°C° 0.5 mm 3 mps 753 mmHg 92%

Tomorrow, 1 October, Thursday

Time Temperature Precipitation Wind Pressure Humidity
00:00 +1°C° 0.5 mm 3 mps 753 mmHg 94%
01:00 +1°C° 0.4 mm 3 mps 753 mmHg 94%
02:00 +1°C° 0.4 mm 3 mps 753 mmHg 94%
03:00 +1°C° 0.4 mm 3 mps 753 mmHg 94%
04:00 +1°C° 0.4 mm 3 mps 752 mmHg 95%
05:00 +2°C° 0.4 mm 2 mps 752 mmHg 95%
06:00 +3°C° 0.4 mm 2 mps 752 mmHg 95%
07:00 +3°C° 0.6 mm 2 mps 752 mmHg 94%
08:00 +3°C° 0.6 mm 3 mps 752 mmHg 93%
09:00 +3°C° 0.6 mm 3 mps 752 mmHg 92%
10:00 +5°C° 0.7 mm 2 mps 752 mmHg 92%
11:00 +5°C° 0.7 mm 2 mps 751 mmHg 92%
12:00 +6°C° 0.7 mm 1 mps 751 mmHg 92%
13:00 +5°C° 0.6 mm 2 mps 752 mmHg 93%
14:00 +5°C° 0.6 mm 2 mps 752 mmHg 94%
15:00 +5°C° 0.6 mm 2 mps 752 mmHg 94%
16:00 +4°C° 0.1 mm 3 mps 753 mmHg 93%
17:00 +3°C° 0.1 mm 3 mps 753 mmHg 91%
18:00 +1°C° 0.1 mm 4 mps 754 mmHg 90%
19:00 +1°C° 0 mm 4 mps 755 mmHg 90%
20:00 +1°C° 0 mm 3 mps 755 mmHg 89%
21:00 +1°C° 0 mm 3 mps 756 mmHg 89%
22:00 0°C° 0 mm 3 mps 756 mmHg 90%
23:00 -1°C° 0 mm 2 mps 757 mmHg 91%

Day after tomorrow, 2 October, Friday

Time Temperature Precipitation Wind Pressure Humidity
00:00 -2°C° 0 mm 2 mps 757 mmHg 92%
01:00 -2°C° 0 mm 2 mps 758 mmHg 92%
02:00 -2°C° 0 mm 2 mps 758 mmHg 93%
03:00 -1°C° 0 mm 1 mps 759 mmHg 93%
04:00 0°C° 0 mm 1 mps 759 mmHg 92%
05:00 0°C° 0 mm 1 mps 759 mmHg 91%
06:00 0°C° 0 mm 1 mps 760 mmHg 90%
07:00 +1°C° 0 mm 1 mps 760 mmHg 84%
08:00 +1°C° 0 mm 1 mps 760 mmHg 78%
09:00 +2°C° 0 mm 1 mps 761 mmHg 73%
10:00 +3°C° 0 mm 1 mps 760 mmHg 67%
11:00 +4°C° 0 mm 1 mps 760 mmHg 61%
12:00 +5°C° 0 mm 1 mps 760 mmHg 55%
13:00 +5°C° 0 mm 1 mps 760 mmHg 53%
14:00 +5°C° 0 mm 1 mps 760 mmHg 52%
15:00 +5°C° 0 mm 1 mps 760 mmHg 51%
16:00 +4°C° 0 mm 1 mps 760 mmHg 58%
17:00 +3°C° 0 mm 1 mps 760 mmHg 65%
18:00 +1°C° 0 mm 1 mps 760 mmHg 71%
19:00 +1°C° 0 mm 1 mps 760 mmHg 74%
20:00 +1°C° 0 mm 1 mps 760 mmHg 76%
21:00 0°C° 0 mm 1 mps 761 mmHg 78%
22:00 0°C° 0 mm 1 mps 760 mmHg 79%
23:00 0°C° 0 mm 1 mps 760 mmHg 79%

3 October, Saturday

Time Temperature Precipitation Wind Pressure Humidity
00:00 -1°C° 0 mm 1 mps 760 mmHg 80%
01:00 -1°C° 0 mm 1 mps 760 mmHg 81%
02:00 -2°C° 0 mm 0 mps 760 mmHg 81%
03:00 -2°C° 0 mm 0 mps 760 mmHg 81%
04:00 -2°C° 0 mm 0 mps 760 mmHg 82%
05:00 -2°C° 0 mm 0 mps 760 mmHg 82%
06:00 -2°C° 0 mm 0 mps 760 mmHg 83%
07:00 -1°C° 0 mm 0 mps 760 mmHg 78%
08:00 0°C° 0 mm 0 mps 760 mmHg 73%
09:00 +1°C° 0 mm 0 mps 760 mmHg 68%
10:00 +2°C° 0 mm 0 mps 760 mmHg 62%
11:00 +4°C° 0 mm 1 mps 760 mmHg 55%
12:00 +5°C° 0 mm 1 mps 759 mmHg 49%
13:00 +5°C° 0 mm 1 mps 759 mmHg 48%
14:00 +5°C° 0 mm 1 mps 759 mmHg 47%
15:00 +5°C° 0 mm 1 mps 759 mmHg 45%
16:00 +4°C° 0 mm 1 mps 759 mmHg 53%
17:00 +2°C° 0 mm 1 mps 759 mmHg 62%
18:00 0°C° 0 mm 1 mps 759 mmHg 70%
19:00 0°C° 0 mm 1 mps 759 mmHg 74%
20:00 -2°C° 0 mm 0 mps 759 mmHg 78%
21:00 -2°C° 0 mm 0 mps 759 mmHg 82%
22:00 -3°C° 0 mm 0 mps 759 mmHg 83%
23:00 -2°C° 0 mm 1 mps 759 mmHg 85%

4 October, Sunday

Time Temperature Precipitation Wind Pressure Humidity
00:00 -2°C° 0 mm 1 mps 759 mmHg 86%
01:00 -2°C° 0 mm 1 mps 759 mmHg 87%
02:00 -2°C° 0 mm 1 mps 759 mmHg 87%
03:00 -2°C° 0 mm 1 mps 759 mmHg 88%
04:00 -2°C° 0 mm 1 mps 759 mmHg 88%
05:00 -2°C° 0 mm 1 mps 759 mmHg 88%
06:00 -3°C° 0 mm 1 mps 759 mmHg 89%
07:00 -1°C° 0 mm 1 mps 759 mmHg 82%
08:00 0°C° 0 mm 1 mps 759 mmHg 75%
09:00 -1°C° 0 mm 2 mps 759 mmHg 68%
10:00 +1°C° 0 mm 2 mps 758 mmHg 61%
11:00 +3°C° 0 mm 2 mps 758 mmHg 54%
12:00 +4°C° 0 mm 2 mps 758 mmHg 48%
13:00 +5°C° 0 mm 2 mps 757 mmHg 47%
14:00 +5°C° 0 mm 2 mps 757 mmHg 47%
15:00 +5°C° 0 mm 2 mps 757 mmHg 46%
16:00 +3°C° 0 mm 2 mps 757 mmHg 55%
17:00 +2°C° 0 mm 1 mps 757 mmHg 63%
18:00 +1°C° 0 mm 1 mps 757 mmHg 72%
19:00 0°C° 0 mm 1 mps 757 mmHg 76%
20:00 -1°C° 0 mm 1 mps 757 mmHg 81%
21:00 -1°C° 0 mm 1 mps 757 mmHg 85%
22:00 -1°C° 0 mm 1 mps 757 mmHg 87%
23:00 -2°C° 0 mm 1 mps 757 mmHg 89%

5 October, Monday

Time Temperature Precipitation Wind Pressure Humidity
00:00 -2°C° 0 mm 1 mps 757 mmHg 91%
01:00 -2°C° 0 mm 1 mps 757 mmHg 92%
02:00 -2°C° 0 mm 1 mps 757 mmHg 93%
03:00 -2°C° 0 mm 1 mps 757 mmHg 94%
04:00 -2°C° 0 mm 1 mps 757 mmHg 94%
05:00 -2°C° 0 mm 1 mps 757 mmHg 94%
06:00 -3°C° 0 mm 1 mps 757 mmHg 94%
07:00 -1°C° 0 mm 1 mps 756 mmHg 88%
08:00 -2°C° 0 mm 2 mps 756 mmHg 82%
09:00 -1°C° 0 mm 2 mps 756 mmHg 76%
10:00 +1°C° 0 mm 2 mps 756 mmHg 70%
11:00 +3°C° 0 mm 2 mps 756 mmHg 63%
12:00 +4°C° 0 mm 2 mps 756 mmHg 57%
13:00 +6°C° 0 mm 1 mps 755 mmHg 56%
14:00 +6°C° 0 mm 1 mps 755 mmHg 56%
15:00 +6°C° 0 mm 1 mps 755 mmHg 55%
16:00 +4°C° 0 mm 1 mps 755 mmHg 64%
17:00 +3°C° 0 mm 1 mps 755 mmHg 73%
18:00 0°C° 0 mm 0 mps 755 mmHg 82%
19:00 -1°C° 0 mm 0 mps 755 mmHg 84%
20:00 -1°C° 0 mm 0 mps 755 mmHg 86%
21:00 -2°C° 0 mm 0 mps 755 mmHg 88%
22:00 -2°C° 0 mm 0 mps 755 mmHg 89%
23:00 -2°C° 0 mm 0 mps 755 mmHg 90%
Show more

We Need Your Consent

Meteoprog and our Service Providers may store and access personal data such as cookies, device identifiers or other similar technologies on your device and process such data to personalise content and ads, as well as provide social media features and to analyse the traffic.

  • Store and/or access information on your device

    Cookies, device identifiers or other information can be stored or accessed on your device for the purposes indicated above.

  • Personalised ads and content, ad and content measurement, audience insights, and products development

    Ads and content can be personalised based on a profile. More data can be added to better personalise ads and content. Ad and content performance can be measured. Insights about the audience who saw the ads and content can be derived. Such data can be used to develop or improve user’s experience, systems and software.

By clicking ‘I Agree’ you will allow the use of indicated cookies, device identifiers, web beacons or other similar technologies. Your settings can be changed in the browser on your device.

For certain purposes, legitimate interests may be relied on, rather than consent. You can read more about this in our Privacy and Cookie Policy.